This is the latest recevied weather packets stored in our database for station/object W2IRT. If no packets are shown the sender has not sent any weather packets the latest 10 day(s).
| Time | Temp. | Humidity | Pressure | Rain* | Wind** | Luminosity | Snow |
|---|---|---|---|---|---|---|---|
| 1777734617 | 13.33° C | 55% | 1011.7 hPa | 0 mm | - | - | - |
| 1777734317 | 13.33° C | 57% | 1011.9 hPa | 0 mm | - | - | - |
| 1777734017 | 13.33° C | 59% | 1011.8 hPa | 0 mm | - | - | - |
| 1777733717 | 13.33° C | 60% | 1011.9 hPa | 0 mm | - | - | - |
| 1777733462 | 12.78° C | 62% | 1011.9 hPa | 0 mm | - | - | - |
| 1777733117 | 12.78° C | 64% | 1011.9 hPa | 0 mm | - | - | - |
| 1777732817 | 12.22° C | 64% | 1012 hPa | 0 mm | - | - | - |
| 1777732517 | 12.22° C | 64% | 1011.9 hPa | 0 mm | - | - | - |
| 1777732217 | 12.22° C | 65% | 1012 hPa | 0 mm | - | - | - |
| 1777731917 | 12.22° C | 67% | 1012.1 hPa | 0 mm | - | - | - |
| 1777731617 | 11.67° C | 67% | 1012.1 hPa | 0 mm | - | - | - |
| 1777731332 | 11.67° C | 67% | 1012.1 hPa | 0 mm | - | - | - |
| 1777731017 | 11.67° C | 68% | 1012.1 hPa | 0 mm | - | - | - |
| 1777730717 | 11.67° C | 68% | 1012 hPa | 0 mm | - | - | - |
| 1777730417 | 11.67° C | 68% | 1012 hPa | 0 mm | - | - | - |
| 1777730117 | 11.67° C | 68% | 1012.1 hPa | 0 mm | - | - | - |
| 1777729817 | 11.67° C | 68% | 1011.9 hPa | 0 mm | - | - | - |
| 1777729517 | 12.22° C | 71% | 1012 hPa | 0 mm | - | - | - |
| 1777729217 | 12.22° C | 68% | 1012.1 hPa | 0 mm | - | - | - |
| 1777728917 | 12.22° C | 72% | 1012 hPa | 0 mm | - | - | - |
| 1777728617 | 11.67° C | 71% | 1011.9 hPa | 0 mm | - | - | - |
| 1777728017 | 11.67° C | 70% | 1012 hPa | 0 mm | - | - | - |
| 1777727717 | 11.67° C | 73% | 1011.9 hPa | 0 mm | - | - | - |
| 1777727417 | 11.67° C | 73% | 1012.1 hPa | 0 mm | - | - | - |
| 1777727117 | 11.67° C | 73% | 1012.2 hPa | 0 mm | - | - | - |
* Rain latest hour (hover to see other rain measurements)
** Current wind speed in m/s (hover to see current wind gust speed)